Emporia, KS

1:15 PM CDT on May 22, 2018 (GMT -0500)
Emporia Municipal

Weather History for KEMP - November, 2012

Change the Weather History Date:

Thursday, November 29, 2012

  Actual Average Record
Temperature  
Mean Temperature 50 °F 38 °F  
Max Temperature 65 °F 49 °F 73 °F (1998)
Min Temperature 35 °F 27 °F 19 °F (2007)
Degree Days  
Heating Degree Days 15 27  
Month to date heating degree days 498 587  
Since 1 July heating degree days 856 914  
Cooling Degree Days 0 0  
Month to date cooling degree days 3 0  
Year to date cooling degree days 1912 1402  
Moisture  
Dew Point 36 °F    
Average Humidity 63    
Maximum Humidity 82    
Minimum Humidity 43    
Precipitation  
Precipitation 0.00 in 0.05 in 1.75 in (1998)
Month to date precipitation 0.83 2.11  
Year to date precipitation 21.18 34.99  
Sea Level Pressure  
Sea Level Pressure 30.05 in    
Wind  
Wind Speed 12 mph (South)    
Max Wind Speed 22 mph    
Max Gust Speed 26 mph    
Visibility 10 miles    
Events      
T = Trace of Precipitation, MM = Missing Value Source: NWS Daily Summary

Daily Weather History Graph

Daily Weather History Graph

Search for Another Location

Airport or City:

Astronomy

Nov. 29, 2012 Rise Set
Actual Time 7:21 AM CST 5:04 PM CST
Civil Twilight 6:52 AM CST 5:34 PM CST
Nautical Twilight 6:19 AM CST 6:06 PM CST
Astronomical Twilight 5:47 AM CST 6:38 PM CST
Moon 6:08 PM CST (11/29) 8:08 AM CST (11/29)
Length of Visible Light 10h 41m
Length of Day
9h 43m
Full, 99% of the Moon is Illuminated
Nov 29
Full
Dec 6
Last Quarter
Dec 13
New
Dec 19
First Quarter
Dec 28
Full

Hourly Weather History & Observations

Time (CST) Temp. Windchill Dew Point Humidity Pressure Visibility Wind Dir Wind Speed Gust Speed Precip Events Conditions
12:53 AM 39.0 °F 31.4 °F 32.0 °F 76% 30.14 in 10.0 mi SSE 12.7 mph - N/A   Clear
1:53 AM 39.0 °F 31.0 °F 32.0 °F 76% 30.13 in 10.0 mi South 13.8 mph - N/A   Clear
2:53 AM 37.9 °F 29.2 °F 32.0 °F 79% 30.12 in 10.0 mi South 15.0 mph - N/A   Clear
3:53 AM 37.9 °F 31.5 °F 32.0 °F 79% 30.13 in 10.0 mi SSE 9.2 mph - N/A   Clear
4:53 AM 35.1 °F 28.6 °F 30.9 °F 85% 30.11 in 10.0 mi SE 8.1 mph - N/A   Clear
5:53 AM 36.0 °F 27.5 °F 30.9 °F 82% 30.09 in 10.0 mi SSE 12.7 mph - N/A   Clear
6:53 AM 37.0 °F 29.3 °F 30.9 °F 79% 30.09 in 10.0 mi SSE 11.5 mph - N/A   Clear
7:53 AM 37.0 °F 28.5 °F 32.0 °F 82% 30.09 in 10.0 mi South 13.8 mph - N/A   Clear
8:53 AM 41.0 °F 33.1 °F 33.1 °F 73% 30.07 in 10.0 mi South 15.0 mph - N/A   Clear
10:53 AM 51.1 °F - 37.9 °F 61% 30.07 in 10.0 mi South 16.1 mph - N/A   Clear
11:53 AM 59.0 °F - 39.9 °F 49% 30.04 in 10.0 mi South 12.7 mph - N/A   Clear
12:53 PM 62.1 °F - 41.0 °F 46% 30.01 in 10.0 mi SSW 15.0 mph - N/A   Clear
1:53 PM 64.0 °F - 41.0 °F 43% 29.99 in 10.0 mi South 18.4 mph 23.0 mph N/A   Clear
2:53 PM 64.9 °F - 41.0 °F 42% 29.97 in 10.0 mi South 18.4 mph - N/A   Clear
3:53 PM 64.9 °F - 41.0 °F 42% 29.97 in 10.0 mi SW 12.7 mph 23.0 mph N/A   Clear
4:53 PM 57.9 °F - 41.0 °F 53% 29.97 in 10.0 mi South 6.9 mph - N/A   Clear
5:53 PM 53.1 °F - 39.0 °F 59% 29.99 in 10.0 mi SW 6.9 mph - N/A   Clear
6:53 PM 53.1 °F - 39.9 °F 61% 30.00 in 10.0 mi SW 6.9 mph - N/A   Clear
7:53 PM 48.0 °F - 37.9 °F 68% 30.01 in 10.0 mi SSE 9.2 mph - N/A   Clear
8:53 PM 48.9 °F - 34.0 °F 56% 30.01 in 10.0 mi South 10.4 mph - N/A   Clear
9:53 PM 45.0 °F 39.3 °F 33.1 °F 63% 30.03 in 10.0 mi South 11.5 mph - N/A   Clear
10:53 PM 44.1 °F 37.7 °F 33.1 °F 65% 30.04 in 10.0 mi South 12.7 mph - N/A   Clear
11:53 PM 45.0 °F 38.9 °F 33.1 °F 63% 30.04 in 10.0 mi South 12.7 mph - N/A   Clear